Regional Weather Roundup
Issued by NWS Green Bay, WI

Home | Current Version | Previous Version | Text Only | Print | Product List | Glossary On
Versions: 1 2 3 4 5 6 7 8 9 10 11 12 13 14 15 16 17 18 19 20 21 22 23 24 25 26 27 28 29 30 31 32 33 34 35 36 37 38 39 40 41 42 43 44 45 46 47 48 49 50
000
ASUS43 KGRB 051011
RWRGRB

NORTH-CENTRAL AND NORTHEAST WISCONSIN REGIONAL WEATHER ROUNDUP
NATIONAL WEATHER SERVICE GREEN BAY WI
400 AM CST MON DEC 05 2016

WIZ005-009-010>012-018-019-051100-
NORTH CENTRAL WISCONSIN

CITY           SKY/WX    TMP DP  RH WIND       PRES   REMARKS
IRONWOOD       CLOUDY    32  29  88 W12       29.73R
MANITOWISH WTR CLOUDY    31  31 100 W10       29.72R
ARBOR VITAE    CLOUDY    33  31  92 SW7       29.73R
EAGLE RIVER    CLOUDY    32  31  96 W10       29.72S
LAND O LAKES   CLOUDY    32  30  92 W5        29.72S
RHINELANDER    CLOUDY    33  29  85 W9        29.75R
PHILLIPS       MOCLDY    31  29  94 SW7       29.75S
ANTIGO         CLOUDY    31  27  86 W10G17    29.78S
TOMAHAWK       CLOUDY    31  28  86 SW3       29.78R
MERRILL        CLOUDY    33  29  88 W9        29.80R
$$

WIZ013-073-051100-
NORTHEAST WISCONSIN

CITY           SKY/WX    TMP DP  RH WIND       PRES   REMARKS
IRON MOUNTAIN  CLOUDY    33  29  85 SW9       29.73R
MARINETTE      CLOUDY    32  32 100 SW6       29.81S
OCONTO         CLOUDY    33  31  93 SW6       29.82S
$$

WIZ017-030-035>037-045-051100-
CENTRAL WISCONSIN

CITY           SKY/WX    TMP DP  RH WIND       PRES   REMARKS
MEDFORD        CLOUDY    31  29  89 SW8       29.79S
WAUSAU         CLOUDY    33  28  81 W7        29.80R
MOSINEE        CLOUDY    32  32 100 W9        29.82S
MARSHFIELD     MOCLDY    32  30  92 W12       29.81S
WISC RAPIDS    CLOUDY    34  33  96 SW7       29.87R
STEVENS POINT  CLOUDY    32  32  99 SW7       29.84R
WAUPACA        CLOUDY    36  32  87 SW9       29.86R
SHAWANO        CLOUDY    35  32  88 SW5       29.83R
CLINTONVILLE   CLOUDY    34  32  93 SW8       29.84R
WAUTOMA        CLOUDY    33  32  96 SW9       29.88R
$$

WIZ038-039-048-051-051100-
FOX VALLEY

CITY           SKY/WX    TMP DP  RH WIND       PRES   REMARKS
NWS GREEN BAY  CLOUDY    36  33  89 SW9       29.85R
APPLETON       CLOUDY    32  32 100 SW12      29.84R
OSHKOSH        CLOUDY    34  30  85 SW8       29.86R
FOND DU LAC    MOCLDY    34  29  82 SW12      29.89R
$$

WIZ022-050-052-051100-
EAST CENTRAL WISCONSIN

CITY           SKY/WX    TMP DP  RH WIND       PRES   REMARKS
EPHRAIM        PTSUNNY   34  32  94 W13G23    29.79R
WASHINGTON ISL CLOUDY    35  32  89 W12G26    29.78R
STURGEON BAY   CLOUDY    34  31  88 SW13      29.82S
MANITOWOC      CLOUDY    34  32  92 W8        29.86S
SHEBOYGAN      CLOUDY    33  30  88 SW10      29.88R
$$

LMZ563-521-522-541>543-051100-
LAKESHORE

STATION/POSITION TIME  TEMP    WIND        PRES    VSBY  WAVE
                       AIR SEA DIR/SP/G                  HT/PER
                 (UTC) (F)     (DEG/KT/KT) (MB)    (MI)  (FT/S)
SHEBOYGAN LKSHOR 1000   35     230/ 11/ 13 1012.6R
KEWAUNEE LKSHORE 0948   35     250/ 11/ 16 1009.9R
ALGOMA MARINA    0921          250/  9/ 16   N/A
NORTHPORT PIER   0940   36     240/  5/ 15 1008.8R
SISTER BAY LKSHO 0923   37     280/ 23/ 27   N/A
CHAMBERS ISLAND  0940   35     210/  9/ 18 1008.5R
MENOMINEE LKSHOR 0948   33     210/  9/ 13 1008.8R
$$



USA.gov is the U.S. government's official web portal to all federal, state and local government web resources and services.